Weather History for Culpeper, VA

Change the Weather History Date:

Tuesday, December 24, 2013

  Actual Average (KOMH) Record (KOMH)
Temperature  
Mean Temperature 33 °F -  
Max Temperature 42 °F 46 °F 67 °F (1990)
Min Temperature 24 °F 25 °F -1 °F (1989)
Degree Days  
Heating Degree Days 32    
Moisture  
Dew Point 18 °F    
Average Humidity 54    
Maximum Humidity 100    
Minimum Humidity 24    
Precipitation  
Precipitation 0.00 in - - ()
Sea Level Pressure  
Sea Level Pressure 30.30 in    
Wind  
Wind Speed 6 mph (NNW)    
Max Wind Speed 14 mph    
Max Gust Speed 22 mph    
Visibility 10 miles    
Events      
Averages and records for this station are not official NWS values.
T = Trace of Precipitation, MM = Missing Value Source: NWS Daily Summary

Daily Weather History Graph

Daily Weather History Graph

Search for Another Location

Airport:

Trip Planner

Search our weather history database for the weather conditions in past years. The results will help you decide how hot, cold, wet, or windy it might be!

Date:

Astronomy

Dec. 24, 2013 Rise Set
Actual Time 7:26 AM EST 4:55 PM EST
Civil Twilight 6:57 AM EST 5:25 PM EST
Nautical Twilight 6:23 AM EST 5:58 PM EST
Astronomical Twilight 5:51 AM EST 6:31 PM EST
Moon 11:57 PM EST (12/24) 11:24 AM EST (12/24)
Length of Visible Light 10h 28m
Length of Day
9h 28m
Waning Gibbous, 59% of the Moon is Illuminated
Dec 24
Waning Gibbous
Dec 25
Last Quarter
Jan 1
New
Jan 7
First Quarter
Jan 15
Full

Hourly Weather History & Observations

Time (EST) Temp. Windchill Dew Point Humidity Pressure Visibility Wind Dir Wind Speed Gust Speed Precip Events Conditions
12:15 AM 39.2 °F 34.2 °F 26.6 °F 61% 30.24 in 10.0 mi North 6.9 mph - N/A   Clear
12:35 AM 39.2 °F 33.6 °F 26.6 °F 61% 30.23 in 10.0 mi North 8.1 mph - N/A   Clear
12:55 AM 39.2 °F 33.6 °F 24.8 °F 56% 30.24 in 10.0 mi North 8.1 mph - N/A   Clear
1:15 AM 39.2 °F 34.2 °F 24.8 °F 56% 30.23 in 10.0 mi North 6.9 mph - N/A   Clear
1:35 AM 37.4 °F 32.8 °F 24.8 °F 60% 30.24 in 10.0 mi North 5.8 mph - N/A   Clear
1:55 AM 37.4 °F 33.8 °F 26.6 °F 65% 30.23 in 10.0 mi North 4.6 mph - N/A   Clear
2:15 AM 35.6 °F 32.8 °F 26.6 °F 70% 30.23 in 10.0 mi North 3.5 mph - N/A   Clear
2:35 AM 35.6 °F - 26.6 °F 70% 30.24 in 10.0 mi Calm Calm - N/A   Clear
2:55 AM 33.8 °F - 30.2 °F 87% 30.24 in 10.0 mi Calm Calm - N/A   Clear
3:15 AM 35.6 °F 30.7 °F 28.4 °F 75% 30.24 in 10.0 mi North 5.8 mph - N/A   Clear
3:35 AM 35.6 °F 30.7 °F 24.8 °F 65% 30.24 in 10.0 mi NNW 5.8 mph - N/A   Clear
3:55 AM 33.8 °F 30.8 °F 24.8 °F 70% 30.23 in 10.0 mi NNE 3.5 mph - N/A   Clear
4:15 AM 33.8 °F - 24.8 °F 70% 30.23 in 10.0 mi Calm Calm - N/A   Clear
4:35 AM 32.0 °F 28.7 °F 24.8 °F 75% 30.23 in 10.0 mi North 3.5 mph - N/A   Clear
4:55 AM 32.0 °F - 24.8 °F 75% 30.23 in 10.0 mi Calm Calm - N/A   Clear
5:15 AM 32.0 °F - 24.8 °F 75% 30.22 in 10.0 mi Calm Calm - N/A   Clear
5:35 AM 32.0 °F - 26.6 °F 80% 30.23 in 10.0 mi Calm Calm - N/A   Clear
5:55 AM 30.2 °F - 28.4 °F 93% 30.23 in 10.0 mi Calm Calm - N/A   Clear
6:15 AM 30.2 °F - 26.6 °F 86% 30.23 in 10.0 mi Calm Calm - N/A   Clear
6:35 AM 30.2 °F - 24.8 °F 80% 30.24 in 10.0 mi Calm Calm - N/A   Clear
6:55 AM 28.4 °F - 24.8 °F 86% 30.23 in 10.0 mi Calm Calm - N/A   Clear
7:15 AM 30.2 °F - 24.8 °F 80% 30.23 in 10.0 mi Calm Calm - N/A   Clear
7:35 AM 28.4 °F - 26.6 °F 93% 30.24 in 10.0 mi Calm Calm - N/A   Clear
7:55 AM 28.4 °F - 28.4 °F 100% 30.25 in 10.0 mi Calm Calm - N/A   Clear
8:15 AM 28.4 °F - 28.4 °F 100% 30.26 in 10.0 mi Calm Calm - N/A   Clear
8:35 AM 30.2 °F - 30.2 °F 100% 30.26 in 10.0 mi Calm Calm - N/A   Clear
8:55 AM 33.8 °F 30.8 °F 30.2 °F 87% 30.26 in 10.0 mi North 3.5 mph - N/A   Clear
9:15 AM 35.6 °F 30.7 °F 24.8 °F 65% 30.26 in 10.0 mi North 5.8 mph - N/A   Clear
9:35 AM 37.4 °F 32.1 °F 24.8 °F 60% 30.27 in 10.0 mi North 6.9 mph - N/A   Clear
9:55 AM 37.4 °F 33.8 °F 23.0 °F 56% 30.27 in 10.0 mi North 4.6 mph - N/A   Clear
10:15 AM 39.2 °F 35.0 °F 24.8 °F 56% 30.27 in 10.0 mi North 5.8 mph - N/A   Clear
10:35 AM 39.2 °F 35.9 °F 23.0 °F 52% 30.28 in 10.0 mi NW 4.6 mph - N/A   Clear
10:55 AM 41.0 °F 39.0 °F 23.0 °F 49% 30.27 in 10.0 mi NNW 3.5 mph - N/A   Scattered Clouds
11:15 AM 41.0 °F 34.3 °F 21.2 °F 45% 30.27 in 10.0 mi NNW 11.5 mph 17.3 mph N/A   Scattered Clouds
11:35 AM 41.0 °F 35.2 °F 21.2 °F 45% 30.26 in 10.0 mi WNW 9.2 mph - N/A   Scattered Clouds
11:55 AM 42.8 °F 36.6 °F 19.4 °F 39% 30.25 in 10.0 mi NW 11.5 mph 18.4 mph N/A   Clear
12:15 PM 42.8 °F 36.6 °F 19.4 °F 39% 30.24 in 10.0 mi NNW 11.5 mph 16.1 mph N/A   Clear
12:35 PM 42.8 °F 38.0 °F 21.2 °F 42% 30.24 in 10.0 mi NW 8.1 mph - N/A   Scattered Clouds
12:55 PM 41.0 °F 35.8 °F 19.4 °F 42% 30.24 in 10.0 mi NNW 8.1 mph - N/A   Scattered Clouds
1:15 PM 42.8 °F 37.0 °F 19.4 °F 39% 30.23 in 10.0 mi WNW 10.4 mph 16.1 mph N/A   Clear
1:35 PM 42.8 °F 37.5 °F 17.6 °F 36% 30.24 in 10.0 mi WNW 9.2 mph 19.6 mph N/A   Scattered Clouds
1:55 PM 42.8 °F 36.6 °F 15.8 °F 34% 30.24 in 10.0 mi West 11.5 mph - N/A   Mostly Cloudy
2:15 PM 42.8 °F 38.0 °F 19.4 °F 39% 30.24 in 10.0 mi WNW 8.1 mph - N/A   Overcast
2:35 PM 42.8 °F 37.5 °F 19.4 °F 39% 30.24 in 10.0 mi West 9.2 mph 17.3 mph N/A   Mostly Cloudy
2:55 PM 42.8 °F 37.5 °F 19.4 °F 39% 30.25 in 10.0 mi WNW 9.2 mph - N/A   Scattered Clouds
3:15 PM 41.0 °F 36.4 °F 21.2 °F 45% 30.26 in 10.0 mi NW 6.9 mph - N/A   Scattered Clouds
3:35 PM 39.2 °F 31.2 °F 19.4 °F 45% 30.27 in 7.0 mi NNW 13.8 mph 19.6 mph N/A   Mostly Cloudy
3:55 PM 39.2 °F 31.6 °F 17.6 °F 42% 30.28 in 10.0 mi WNW 12.7 mph 18.4 mph N/A   Mostly Cloudy
4:15 PM 39.2 °F 31.6 °F 14.0 °F 36% 30.29 in 10.0 mi NW 12.7 mph 21.9 mph N/A   Clear
4:35 PM 37.4 °F 29.3 °F 19.4 °F 48% 30.31 in 10.0 mi NNW 12.7 mph 19.6 mph N/A   Clear
4:55 PM 35.6 °F 29.2 °F 19.4 °F 52% 30.32 in 10.0 mi NNW 8.1 mph - N/A   Scattered Clouds
5:15 PM 35.6 °F 28.6 °F 17.6 °F 48% 30.34 in 10.0 mi NNW 9.2 mph - N/A   Clear
5:35 PM 35.6 °F 29.2 °F 15.8 °F 44% 30.35 in 10.0 mi NW 8.1 mph 16.1 mph N/A   Clear
5:55 PM 35.6 °F 27.1 °F 1.4 °F 24% 30.37 in 10.0 mi NW 12.7 mph 21.9 mph N/A   Clear
6:15 PM 33.8 °F 25.8 °F 1.4 °F 25% 30.39 in 10.0 mi NW 10.4 mph 19.6 mph N/A   Clear
6:35 PM 33.8 °F 25.3 °F 1.4 °F 25% 30.39 in 10.0 mi WNW 11.5 mph 21.9 mph N/A   Clear
6:55 PM 33.8 °F 26.4 °F 1.4 °F 25% 30.41 in 10.0 mi NW 9.2 mph - N/A   Clear
7:15 PM 32.0 °F 24.8 °F 1.4 °F 27% 30.41 in 10.0 mi NW 8.1 mph 17.3 mph N/A   Clear
7:35 PM 32.0 °F 27.5 °F 1.4 °F 27% 30.43 in 10.0 mi NW 4.6 mph - N/A   Clear
7:55 PM 30.2 °F 22.6 °F 1.4 °F 29% 30.44 in 10.0 mi NW 8.1 mph - N/A   Clear
8:15 PM 30.2 °F 23.4 °F 3.2 °F 32% 30.44 in 10.0 mi NNW 6.9 mph - N/A   Clear
8:35 PM 30.2 °F 21.3 °F 3.2 °F 32% 30.45 in 10.0 mi NNW 10.4 mph 17.3 mph N/A   Clear
8:55 PM 30.2 °F 23.4 °F 1.4 °F 29% 30.46 in 10.0 mi NNW 6.9 mph 16.1 mph N/A   Clear
9:15 PM 28.4 °F 20.4 °F 5.0 °F 37% 30.46 in 10.0 mi NNE 8.1 mph - N/A   Clear
9:35 PM 28.4 °F 18.5 °F 5.0 °F 37% 30.47 in 10.0 mi North 11.5 mph - N/A   Clear
9:55 PM 26.6 °F 16.2 °F 3.2 °F 37% 30.47 in 10.0 mi North 11.5 mph 18.4 mph N/A   Clear
10:15 PM 26.6 °F 15.7 °F 5.0 °F 40% 30.47 in 10.0 mi North 12.7 mph 19.6 mph N/A   Clear
10:35 PM 26.6 °F 20.0 °F 5.0 °F 40% 30.47 in 10.0 mi NNE 5.8 mph 9.2 mph N/A   Clear
10:55 PM 26.6 °F 20.0 °F 5.0 °F 40% 30.48 in 10.0 mi NNE 5.8 mph - N/A   Clear
11:15 PM 24.8 °F 15.3 °F 6.8 °F 46% 30.48 in 10.0 mi North 9.2 mph - N/A   Clear
11:35 PM 24.8 °F 15.3 °F 6.8 °F 46% 30.49 in 10.0 mi North 9.2 mph - N/A   Clear
11:55 PM 24.8 °F 16.1 °F 6.8 °F 46% 30.49 in 10.0 mi North 8.1 mph - N/A   Clear